When you browse on this site, cookies collect data to enhance your experience and personalize the content and advertising you see.
Visit our Privacy Policy to learn more. By continuing to use the site, you agree to this use of cookies and data.
  • Em Portugal
  • Lista de países
  • Para 7 dias
  • Temperatura da água
  • Mapas de satélite
  • Mapa do tempo
  • Widgets de tempo
  • user-avatar
    Iniciar Sessão

    Previsão horária em Kobuszyn

    Hoje, 16 Janeiro, Quarta-feira

    Tempo Temperatura Precipitação Vento Pressão Humidade
    00:00 0°C° 0.1 mm 8 m/s 737 mmHg 90%
    01:00 0°C° 0 mm 7 m/s 737 mmHg 87%
    02:00 -1°C° 0 mm 7 m/s 738 mmHg 87%
    03:00 -1°C° 0 mm 6 m/s 738 mmHg 87%
    04:00 -2°C° 0 mm 6 m/s 739 mmHg 87%
    05:00 -1°C° 0 mm 5 m/s 740 mmHg 89%
    06:00 0°C° 0 mm 3 m/s 740 mmHg 91%
    07:00 +1°C° 0 mm 2 m/s 741 mmHg 93%
    08:00 +1°C° 0.1 mm 2 m/s 741 mmHg 94%
    09:00 +1°C° 0.1 mm 2 m/s 742 mmHg 95%
    10:00 +1°C° 0.1 mm 2 m/s 742 mmHg 97%
    11:00 +2°C° 0.2 mm 2 m/s 742 mmHg 97%
    12:00 +1°C° 0.2 mm 3 m/s 742 mmHg 98%
    13:00 +1°C° 0.2 mm 3 m/s 742 mmHg 98%
    14:00 0°C° 0.1 mm 4 m/s 742 mmHg 96%
    15:00 +1°C° 0.1 mm 4 m/s 742 mmHg 95%
    16:00 +1°C° 0.1 mm 5 m/s 742 mmHg 93%
    17:00 +1°C° 0 mm 5 m/s 742 mmHg 93%
    18:00 +1°C° 0 mm 5 m/s 742 mmHg 94%
    19:00 +1°C° 0 mm 5 m/s 742 mmHg 94%
    20:00 +1°C° 0 mm 5 m/s 741 mmHg 94%
    21:00 +1°C° 0 mm 5 m/s 741 mmHg 94%
    22:00 +1°C° 0 mm 5 m/s 741 mmHg 94%
    23:00 +1°C° 0 mm 5 m/s 741 mmHg 93%

    Amanhã, 17 Janeiro, Quinta-feira

    Tempo Temperatura Precipitação Vento Pressão Humidade
    00:00 -1°C° 0 mm 6 m/s 740 mmHg 92%
    01:00 -1°C° 0 mm 6 m/s 740 mmHg 91%
    02:00 -1°C° 0 mm 6 m/s 739 mmHg 90%
    03:00 -1°C° 0 mm 6 m/s 738 mmHg 89%
    04:00 -1°C° 0 mm 6 m/s 738 mmHg 88%
    05:00 -1°C° 0 mm 7 m/s 737 mmHg 85%
    06:00 -1°C° 0 mm 7 m/s 737 mmHg 83%
    07:00 -1°C° 0 mm 7 m/s 736 mmHg 80%
    08:00 -1°C° 0 mm 8 m/s 737 mmHg 79%
    09:00 -1°C° 0 mm 8 m/s 737 mmHg 79%
    10:00 0°C° 0 mm 8 m/s 737 mmHg 78%
    11:00 0°C° 0 mm 8 m/s 737 mmHg 78%
    12:00 +1°C° 0 mm 8 m/s 737 mmHg 79%
    13:00 +1°C° 0 mm 8 m/s 737 mmHg 79%
    14:00 +2°C° 0 mm 7 m/s 737 mmHg 79%
    15:00 0°C° 0 mm 7 m/s 737 mmHg 79%
    16:00 +1°C° 0 mm 6 m/s 738 mmHg 79%
    17:00 +1°C° 0 mm 6 m/s 737 mmHg 80%
    18:00 +1°C° 0 mm 6 m/s 737 mmHg 81%
    19:00 +1°C° 0 mm 6 m/s 737 mmHg 82%
    20:00 0°C° 0.5 mm 7 m/s 737 mmHg 82%
    21:00 0°C° 0.5 mm 8 m/s 737 mmHg 82%
    22:00 0°C° 0.5 mm 9 m/s 737 mmHg 82%
    23:00 0°C° 0 mm 9 m/s 737 mmHg 79%

    Depois de amanhã, 18 Janeiro, Sexta-feira

    Tempo Temperatura Precipitação Vento Pressão Humidade
    00:00 -1°C° 0 mm 8 m/s 738 mmHg 75%
    01:00 -2°C° 0 mm 8 m/s 738 mmHg 71%
    02:00 -2°C° 0 mm 8 m/s 738 mmHg 72%
    03:00 -4°C° 0 mm 8 m/s 738 mmHg 72%
    04:00 -4°C° 0 mm 9 m/s 738 mmHg 72%
    05:00 -4°C° 0.1 mm 9 m/s 739 mmHg 75%
    06:00 -4°C° 0.1 mm 9 m/s 739 mmHg 78%
    07:00 -4°C° 0.1 mm 9 m/s 739 mmHg 81%
    08:00 -4°C° 0.3 mm 8 m/s 741 mmHg 81%
    09:00 -4°C° 0.3 mm 8 m/s 742 mmHg 80%
    10:00 -4°C° 0.3 mm 8 m/s 743 mmHg 80%
    11:00 -4°C° 0 mm 8 m/s 744 mmHg 76%
    12:00 -4°C° 0 mm 8 m/s 746 mmHg 72%
    13:00 -3°C° 0 mm 7 m/s 747 mmHg 68%
    14:00 -3°C° 0 mm 6 m/s 748 mmHg 69%
    15:00 -4°C° 0 mm 5 m/s 749 mmHg 71%
    16:00 -4°C° 0 mm 4 m/s 749 mmHg 72%
    17:00 -4°C° 0 mm 4 m/s 750 mmHg 74%
    18:00 -4°C° 0 mm 4 m/s 751 mmHg 75%
    19:00 -4°C° 0 mm 4 m/s 751 mmHg 77%
    20:00 -4°C° 0 mm 4 m/s 752 mmHg 77%
    21:00 -4°C° 0 mm 4 m/s 752 mmHg 77%
    22:00 -4°C° 0 mm 4 m/s 752 mmHg 77%
    23:00 -4°C° 0 mm 4 m/s 753 mmHg 80%

    19 Janeiro, Sábado

    Tempo Temperatura Precipitação Vento Pressão Humidade
    00:00 -4°C° 0 mm 4 m/s 753 mmHg 82%
    01:00 -4°C° 0 mm 4 m/s 753 mmHg 84%
    02:00 -4°C° 0 mm 4 m/s 753 mmHg 84%
    03:00 -4°C° 0 mm 4 m/s 753 mmHg 85%
    04:00 -5°C° 0 mm 5 m/s 752 mmHg 85%
    05:00 -5°C° 0 mm 5 m/s 752 mmHg 84%
    06:00 -5°C° 0 mm 5 m/s 753 mmHg 84%
    07:00 -5°C° 0 mm 5 m/s 753 mmHg 83%
    08:00 -4°C° 0 mm 5 m/s 753 mmHg 82%
    09:00 -3°C° 0 mm 4 m/s 753 mmHg 81%
    10:00 -3°C° 0 mm 4 m/s 753 mmHg 80%
    11:00 -2°C° 0 mm 4 m/s 753 mmHg 79%
    12:00 -2°C° 0 mm 4 m/s 753 mmHg 79%
    13:00 -1°C° 0 mm 3 m/s 753 mmHg 78%
    14:00 -1°C° 0 mm 3 m/s 753 mmHg 80%
    15:00 -2°C° 0 mm 3 m/s 753 mmHg 83%
    16:00 -2°C° 0 mm 2 m/s 753 mmHg 85%
    17:00 -2°C° 0 mm 2 m/s 753 mmHg 86%
    18:00 -3°C° 0 mm 2 m/s 753 mmHg 86%
    19:00 -3°C° 0 mm 2 m/s 753 mmHg 87%
    20:00 -3°C° 0 mm 2 m/s 753 mmHg 87%
    21:00 -3°C° 0 mm 2 m/s 753 mmHg 87%
    22:00 -3°C° 0 mm 2 m/s 753 mmHg 88%
    23:00 -3°C° 0 mm 2 m/s 753 mmHg 88%

    20 Janeiro, Domingo

    Tempo Temperatura Precipitação Vento Pressão Humidade
    00:00 -3°C° 0 mm 2 m/s 753 mmHg 87%
    01:00 -2°C° 0 mm 2 m/s 753 mmHg 87%
    02:00 -2°C° 0 mm 2 m/s 753 mmHg 87%
    03:00 -2°C° 0 mm 2 m/s 752 mmHg 88%
    04:00 -3°C° 0 mm 2 m/s 752 mmHg 89%
    05:00 -3°C° 0 mm 2 m/s 752 mmHg 88%
    06:00 -3°C° 0 mm 2 m/s 752 mmHg 88%
    07:00 -4°C° 0 mm 3 m/s 752 mmHg 88%
    08:00 -2°C° 0 mm 3 m/s 752 mmHg 85%
    09:00 -3°C° 0 mm 4 m/s 753 mmHg 83%
    10:00 -3°C° 0 mm 4 m/s 753 mmHg 81%
    11:00 -2°C° 0 mm 4 m/s 753 mmHg 80%
    12:00 -2°C° 0 mm 5 m/s 753 mmHg 79%
    13:00 -1°C° 0 mm 5 m/s 752 mmHg 78%
    14:00 -2°C° 0.1 mm 4 m/s 753 mmHg 79%
    15:00 -2°C° 0.1 mm 4 m/s 753 mmHg 81%
    16:00 -2°C° 0.1 mm 3 m/s 753 mmHg 82%
    17:00 -2°C° 0 mm 3 m/s 753 mmHg 82%
    18:00 -4°C° 0 mm 3 m/s 754 mmHg 81%
    19:00 -4°C° 0 mm 3 m/s 754 mmHg 80%
    20:00 -4°C° 0 mm 3 m/s 755 mmHg 81%
    21:00 -5°C° 0 mm 3 m/s 755 mmHg 81%
    22:00 -5°C° 0 mm 3 m/s 756 mmHg 81%
    23:00 -5°C° 0 mm 3 m/s 756 mmHg 81%

    21 Janeiro, Segunda-feira

    Tempo Temperatura Precipitação Vento Pressão Humidade
    00:00 -5°C° 0 mm 3 m/s 757 mmHg 82%
    01:00 -5°C° 0 mm 3 m/s 757 mmHg 82%
    02:00 -5°C° 0 mm 3 m/s 758 mmHg 82%
    03:00 -5°C° 0 mm 3 m/s 758 mmHg 83%
    04:00 -5°C° 0 mm 3 m/s 758 mmHg 83%
    05:00 -6°C° 0 mm 3 m/s 758 mmHg 84%
    06:00 -6°C° 0 mm 3 m/s 759 mmHg 84%
    07:00 -6°C° 0 mm 3 m/s 759 mmHg 85%
    08:00 -5°C° 0 mm 3 m/s 760 mmHg 82%
    09:00 -5°C° 0 mm 3 m/s 760 mmHg 79%
    10:00 -4°C° 0 mm 4 m/s 760 mmHg 77%
    11:00 -4°C° 0 mm 4 m/s 761 mmHg 74%
    12:00 -3°C° 0 mm 4 m/s 761 mmHg 72%
    13:00 -3°C° 0 mm 4 m/s 761 mmHg 70%
    14:00 -2°C° 0 mm 3 m/s 761 mmHg 73%
    15:00 -4°C° 0 mm 3 m/s 761 mmHg 76%
    16:00 -3°C° 0 mm 2 m/s 761 mmHg 79%
    17:00 -3°C° 0 mm 2 m/s 761 mmHg 79%
    18:00 -4°C° 0 mm 2 m/s 761 mmHg 78%
    19:00 -4°C° 0 mm 2 m/s 761 mmHg 78%
    20:00 -4°C° 0 mm 2 m/s 761 mmHg 77%
    21:00 -5°C° 0 mm 3 m/s 761 mmHg 77%
    22:00 -5°C° 0 mm 3 m/s 761 mmHg 76%
    23:00 -6°C° 0 mm 3 m/s 760 mmHg 75%
    Mostrar mais